| time (UTC) | temp C | wind direction | speed KPH | gust KPH | rain 1hr cm | rain 24hr cm | rain mn cm | humidity % | barometer mb |
| 20260504110321 | 16 | 0 | 22.5 | 35.4 | 0.00 | 0.05 | 0.05 | 37 | 1018.4 |
| 20260504100319 | 16 | 0 | 24.1 | 35.4 | 0.00 | 0.05 | 0.05 | 37 | 1018.6 |
| 20260504081817 | 15 | 0 | 25.7 | 43.5 | 0.00 | 0.05 | 0.05 | 38 | 1018.4 |
| 20260504081318 | 15 | 0 | 25.7 | 41.8 | 0.00 | 0.05 | 0.05 | 37 | 1018.3 |
| 20260504080817 | 15 | 0 | 22.5 | 33.8 | 0.00 | 0.05 | 0.05 | 37 | 1018.3 |
| 20260504080318 | 16 | 0 | 25.7 | 33.8 | 0.00 | 0.05 | 0.05 | 37 | 1018.3 |
| 20260504050312 | 13 | 4 | 30.6 | 45.1 | 0.00 | 0.05 | 0.05 | 44 | 1017.0 |
| 20260504045813 | 14 | 0 | 30.6 | 45.1 | 0.00 | 0.05 | 0.05 | 43 | 1016.8 |
| 20260504045312 | 13 | 0 | 25.7 | 45.1 | 0.00 | 0.05 | 0.05 | 44 | 1016.7 |
| 20260504044812 | 13 | 0 | 25.7 | 38.6 | 0.00 | 0.05 | 0.05 | 43 | 1016.7 |
| 20260504044542 | 13 | 0 | 25.7 | 45.1 | 0.00 | 0.05 | 0.05 | 43 | 1016.7 |
| 20260504043812 | 13 | 0 | 25.7 | 45.1 | 0.00 | 0.05 | 0.05 | 43 | 1016.6 |
| 20260504043312 | 13 | 0 | 27.4 | 43.5 | 0.00 | 0.05 | 0.05 | 44 | 1016.6 |
| 20260504042813 | 13 | 351 | 22.5 | 41.8 | 0.00 | 0.05 | 0.05 | 45 | 1016.4 |
| 20260504042313 | 13 | 0 | 24.1 | 38.6 | 0.00 | 0.05 | 0.05 | 45 | 1016.4 |
| 20260504041811 | 13 | 0 | 22.5 | 43.5 | 0.00 | 0.05 | 0.05 | 45 | 1016.4 |
| 20260504041537 | 13 | 0 | 27.4 | 43.5 | 0.00 | 0.05 | 0.05 | 45 | 1016.4 |
| 20260504040811 | 13 | 0 | 19.3 | 37.0 | 0.00 | 0.05 | 0.05 | 46 | 1016.3 |
| 20260504040536 | 13 | 0 | 27.4 | 37.0 | 0.00 | 0.05 | 0.05 | 46 | 1016.4 |
| 20260504040259 | 13 | 0 | 24.1 | 37.0 | 0.00 | 0.05 | 0.05 | 46 | 1016.3 |
| 20260504035312 | 13 | 0 | 20.9 | 46.7 | 0.00 | 0.05 | 0.05 | 47 | 1016.2 |
| 20260504034811 | 13 | 0 | 24.1 | 46.7 | 0.00 | 0.05 | 0.05 | 47 | 1016.3 |
| 20260504034311 | 13 | 0 | 27.4 | 41.8 | 0.00 | 0.05 | 0.05 | 47 | 1016.2 |
| 20260504033811 | 13 | 0 | 19.3 | 38.6 | 0.00 | 0.05 | 0.05 | 47 | 1016.1 |
| 20260504033533 | 13 | 0 | 29.0 | 43.5 | 0.00 | 0.05 | 0.05 | 46 | 1016.0 |
| 20260504032810 | 13 | 0 | 20.9 | 48.3 | 0.00 | 0.05 | 0.05 | 46 | 1016.0 |
| 20260504032311 | 13 | 0 | 27.4 | 48.3 | 0.00 | 0.05 | 0.05 | 46 | 1016.0 |
| 20260504031811 | 13 | 0 | 27.4 | 43.5 | 0.00 | 0.05 | 0.05 | 45 | 1015.8 |
| 20260504031310 | 13 | 0 | 29.0 | 48.3 | 0.00 | 0.05 | 0.05 | 45 | 1016.0 |
| 20260504030811 | 13 | 0 | 30.6 | 48.3 | 0.00 | 0.05 | 0.05 | 45 | 1015.8 |
| 20260504030311 | 13 | 0 | 30.6 | 41.8 | 0.00 | 0.05 | 0.05 | 45 | 1015.8 |
| 20260504025810 | 13 | 0 | 29.0 | 45.1 | 0.00 | 0.05 | 0.05 | 46 | 1015.6 |
| 20260504025311 | 13 | 0 | 27.4 | 46.7 | 0.00 | 0.05 | 0.05 | 46 | 1015.6 |
| 20260504024809 | 13 | 0 | 29.0 | 46.7 | 0.00 | 0.05 | 0.05 | 45 | 1015.7 |
| 20260504024310 | 13 | 0 | 30.6 | 43.5 | 0.00 | 0.05 | 0.05 | 46 | 1015.7 |
| 20260504023809 | 13 | 0 | 24.1 | 45.1 | 0.00 | 0.05 | 0.05 | 46 | 1015.7 |
| 20260504023309 | 13 | 4 | 27.4 | 45.1 | 0.00 | 0.05 | 0.05 | 46 | 1015.9 |
| 20260504022808 | 13 | 0 | 27.4 | 38.6 | 0.00 | 0.05 | 0.05 | 47 | 1015.8 |
| 20260504022308 | 13 | 0 | 22.5 | 38.6 | 0.00 | 0.05 | 0.05 | 46 | 1016.0 |
| 20260504021809 | 13 | 0 | 25.7 | 51.5 | 0.00 | 0.05 | 0.05 | 46 | 1015.9 |
| 20260504021310 | 13 | 0 | 32.2 | 51.5 | 0.00 | 0.05 | 0.05 | 46 | 1015.9 |
| 20260504020808 | 13 | 0 | 29.0 | 41.8 | 0.00 | 0.05 | 0.05 | 46 | 1015.9 |
| 20260504020310 | 13 | 0 | 24.1 | 41.8 | 0.00 | 0.05 | 0.05 | 47 | 1015.7 |
| 20260504015809 | 13 | 0 | 29.0 | 45.1 | 0.00 | 0.05 | 0.05 | 46 | 1015.8 |
| 20260504015308 | 13 | 0 | 30.6 | 54.7 | 0.00 | 0.05 | 0.05 | 46 | 1015.8 |
| 20260504014809 | 13 | 0 | 32.2 | 54.7 | 0.00 | 0.05 | 0.05 | 46 | 1015.7 |
| 20260504014309 | 13 | 0 | 27.4 | 56.3 | 0.00 | 0.05 | 0.05 | 45 | 1016.0 |
| 20260504013809 | 13 | 0 | 30.6 | 56.3 | 0.00 | 0.05 | 0.05 | 45 | 1016.0 |
| 20260504013308 | 13 | 0 | 35.4 | 51.5 | 0.00 | 0.05 | 0.05 | 45 | 1015.8 |
| 20260504012808 | 13 | 0 | 30.6 | 53.1 | 0.00 | 0.05 | 0.05 | 46 | 1016.0 |
| 20260504012309 | 13 | 0 | 32.2 | 53.1 | 0.00 | 0.05 | 0.05 | 45 | 1015.8 |
| 20260504011807 | 13 | 0 | 32.2 | 49.9 | 0.00 | 0.05 | 0.05 | 45 | 1015.8 |
| 20260504011307 | 13 | 0 | 25.7 | 48.3 | 0.00 | 0.05 | 0.05 | 47 | 1015.9 |
| 20260504011029 | 13 | 0 | 32.2 | 48.3 | 0.00 | 0.05 | 0.05 | 46 | 1015.8 |
| 20260504010307 | 13 | 0 | 32.2 | 46.7 | 0.00 | 0.05 | 0.05 | 48 | 1015.8 |
| 20260504005809 | 13 | 0 | 24.1 | 37.0 | 0.00 | 0.05 | 0.05 | 49 | 1015.7 |
| 20260504005307 | 13 | 0 | 27.4 | 38.6 | 0.00 | 0.05 | 0.05 | 49 | 1015.6 |
| 20260504004808 | 13 | 0 | 25.7 | 38.6 | 0.00 | 0.05 | 0.05 | 49 | 1015.7 |
| 20260504004535 | 13 | 0 | 25.7 | 38.6 | 0.00 | 0.05 | 0.05 | 49 | 1015.8 |
| 20260504004031 | 13 | 0 | 20.9 | 49.9 | 0.00 | 0.05 | 0.05 | 48 | 1015.7 |
| 20260504003307 | 13 | 0 | 29.0 | 49.9 | 0.00 | 0.05 | 0.05 | 49 | 1015.6 |
| 20260504003028 | 13 | 0 | 24.1 | 37.0 | 0.00 | 0.05 | 0.05 | 50 | 1015.5 |
| 20260504002307 | 13 | 0 | 27.4 | 37.0 | 0.00 | 0.05 | 0.05 | 50 | 1015.6 |
| 20260504001805 | 13 | 0 | 24.1 | 35.4 | 0.00 | 0.05 | 0.05 | 50 | 1015.7 |
| 20260504001306 | 13 | 0 | 24.1 | 33.8 | 0.00 | 0.05 | 0.05 | 50 | 1015.7 |
| 20260504000806 | 13 | 0 | 19.3 | 33.8 | 0.00 | 0.05 | 0.05 | 49 | 1015.7 |
| 20260504000306 | 13 | 0 | 20.9 | 33.8 | 0.00 | 0.08 | 0.05 | 49 | 1015.7 |
| 20260504000035 | 13 | 0 | 20.9 | 35.4 | 0.00 | 0.08 | 0.05 | 49 | 1015.7 |
| 20260503235307 | 13 | 0 | 25.7 | 38.6 | 0.00 | 0.08 | 0.05 | 49 | 1015.7 |
| 20260503235029 | 13 | 0 | 24.1 | 57.9 | 0.00 | 0.08 | 0.05 | 48 | 1015.6 |
| 20260503234304 | 13 | 0 | 32.2 | 57.9 | 0.00 | 0.08 | 0.05 | 47 | 1015.6 |
| 20260503233806 | 13 | 0 | 20.9 | 49.9 | 0.00 | 0.08 | 0.05 | 47 | 1015.7 |
| 20260503233305 | 13 | 0 | 33.8 | 49.9 | 0.00 | 0.08 | 0.05 | 48 | 1015.7 |
| 20260503232805 | 13 | 0 | 25.7 | 49.9 | 0.00 | 0.08 | 0.05 | 49 | 1015.4 |
| 20260503232305 | 13 | 0 | 30.6 | 49.9 | 0.00 | 0.08 | 0.05 | 49 | 1015.6 |
| 20260503231806 | 13 | 0 | 27.4 | 48.3 | 0.00 | 0.08 | 0.05 | 51 | 1015.5 |
| 20260503231304 | 13 | 0 | 32.2 | 48.3 | 0.00 | 0.08 | 0.05 | 51 | 1015.5 |
| 20260503230813 | 12 | 0 | 27.4 | 46.7 | 0.00 | 0.10 | 0.05 | 52 | 1015.5 |
| 20260503230806 | 12 | 0 | 30.6 | 46.7 | 0.00 | 0.10 | 0.05 | 51 | 1015.5 |
| 20260503225804 | 12 | 0 | 30.6 | 46.7 | 0.00 | 0.10 | 0.05 | 53 | 1015.6 |
| 20260503225305 | 12 | 0 | 25.7 | 45.1 | 0.00 | 0.10 | 0.05 | 56 | 1015.6 |
| 20260503224805 | 12 | 0 | 30.6 | 45.1 | 0.03 | 0.10 | 0.05 | 56 | 1015.5 |
| 20260503224305 | 12 | 0 | 25.7 | 45.1 | 0.05 | 0.10 | 0.05 | 56 | 1015.4 |
| 20260503223804 | 12 | 353 | 30.6 | 45.1 | 0.05 | 0.10 | 0.05 | 56 | 1015.6 |
| 20260503223303 | 12 | 0 | 30.6 | 53.1 | 0.05 | 0.10 | 0.05 | 56 | 1015.4 |
| 20260503222804 | 12 | 0 | 33.8 | 53.1 | 0.05 | 0.10 | 0.05 | 58 | 1015.7 |
| 20260503222304 | 12 | 0 | 19.3 | 30.6 | 0.05 | 0.10 | 0.05 | 59 | 1015.5 |
| 20260503222031 | 12 | 0 | 19.3 | 37.0 | 0.05 | 0.10 | 0.05 | 59 | 1015.6 |
| 20260503221315 | 12 | 0 | 20.9 | 37.0 | 0.05 | 0.10 | 0.05 | 59 | 1015.5 |
| 20260503220817 | 12 | 0 | 22.5 | 48.3 | 0.05 | 0.10 | 0.05 | 59 | 1015.6 |
| 20260503220304 | 11 | 0 | 27.4 | 48.3 | 0.05 | 0.10 | 0.05 | 58 | 1015.7 |
| 20260503215816 | 11 | 0 | 27.4 | 43.5 | 0.05 | 0.05 | 0.05 | 58 | 1015.8 |
| 20260503215304 | 11 | 0 | 27.4 | 41.8 | 0.05 | 0.05 | 0.05 | 59 | 1016.0 |
| 20260503214802 | 12 | 0 | 29.0 | 56.3 | 0.03 | 0.05 | 0.03 | 58 | 1016.1 |
| 20260503214304 | 12 | 0 | 32.2 | 56.3 | 0.00 | 0.05 | 0.00 | 56 | 1015.9 |
| 20260503213802 | 13 | 0 | 32.2 | 48.3 | 0.00 | 0.05 | 0.00 | 55 | 1015.4 |
| 20260503213304 | 13 | 0 | 27.4 | 46.7 | 0.00 | 0.05 | 0.00 | 55 | 1015.4 |
| 20260503212803 | 13 | 0 | 27.4 | 46.7 | 0.00 | 0.05 | 0.00 | 54 | 1015.2 |
| 20260503212305 | 13 | 0 | 25.7 | 49.9 | 0.00 | 0.05 | 0.00 | 53 | 1015.4 |
| 20260503211803 | 13 | 0 | 30.6 | 49.9 | 0.00 | 0.05 | 0.00 | 51 | 1015.0 |
| 20260503211302 | 13 | 0 | 27.4 | 51.5 | 0.00 | 0.05 | 0.00 | 53 | 1015.2 |
| 20260503210803 | 13 | 0 | 30.6 | 51.5 | 0.00 | 0.05 | 0.00 | 53 | 1015.0 |
| 20260503210302 | 13 | 0 | 25.7 | 43.5 | 0.00 | 0.05 | 0.00 | 53 | 1015.1 |
| 20260503205802 | 13 | 0 | 27.4 | 46.7 | 0.00 | 0.05 | 0.05 | 52 | 1015.4 |
| 20260503205303 | 13 | 0 | 29.0 | 49.9 | 0.00 | 0.05 | 0.05 | 52 | 1015.2 |
| 20260503204801 | 13 | 358 | 29.0 | 57.9 | 0.00 | 0.05 | 0.05 | 52 | 1015.2 |
| 20260503204303 | 13 | 0 | 40.2 | 57.9 | 0.00 | 0.05 | 0.05 | 51 | 1015.3 |
| 20260503203801 | 13 | 0 | 37.0 | 54.7 | 0.00 | 0.05 | 0.05 | 52 | 1015.4 |
| 20260503203532 | 13 | 0 | 30.6 | 53.1 | 0.00 | 0.05 | 0.05 | 52 | 1015.5 |
| 20260503202801 | 13 | 0 | 25.7 | 51.5 | 0.00 | 0.05 | 0.05 | 53 | 1015.3 |
| 20260503202527 | 12 | 0 | 27.4 | 51.5 | 0.00 | 0.05 | 0.05 | 55 | 1015.3 |
| 20260503201813 | 12 | 0 | 24.1 | 48.3 | 0.00 | 0.20 | 0.05 | 55 | 1015.3 |
| 20260503201301 | 13 | 0 | 33.8 | 48.3 | 0.00 | 0.23 | 0.05 | 53 | 1015.4 |
| 20260503200801 | 13 | 0 | 27.4 | 51.5 | 0.00 | 0.23 | 0.05 | 52 | 1015.2 |
| 20260503200751 | 13 | 0 | 33.8 | 56.3 | 0.00 | 0.23 | 0.05 | 52 | 1015.0 |
| 20260503200526 | 13 | 0 | 40.2 | 56.3 | 0.00 | 0.23 | 0.05 | 52 | 1015.4 |
| 20260503195300 | 12 | 0 | 30.6 | 45.1 | 0.00 | 0.23 | 0.05 | 54 | 1015.3 |
| 20260503194800 | 12 | 0 | 27.4 | 51.5 | 0.00 | 0.23 | 0.05 | 54 | 1015.1 |
| 20260503194259 | 13 | 0 | 33.8 | 56.3 | 0.00 | 0.23 | 0.05 | 53 | 1015.3 |
| 20260503193759 | 13 | 0 | 35.4 | 56.3 | 0.00 | 0.23 | 0.05 | 51 | 1015.1 |
| 20260503193259 | 13 | 0 | 32.2 | 49.9 | 0.00 | 0.23 | 0.05 | 50 | 1015.0 |
| 20260503192800 | 13 | 0 | 29.0 | 53.1 | 0.00 | 0.23 | 0.05 | 49 | 1015.0 |
| 20260503192300 | 13 | 0 | 35.4 | 53.1 | 0.00 | 0.23 | 0.05 | 50 | 1015.0 |
| 20260503191800 | 13 | 0 | 37.0 | 51.5 | 0.00 | 0.23 | 0.05 | 50 | 1014.7 |
| 20260503191300 | 13 | 0 | 37.0 | 51.5 | 0.00 | 0.23 | 0.05 | 50 | 1014.7 |
| 20260503190759 | 13 | 0 | 30.6 | 46.7 | 0.00 | 0.23 | 0.05 | 54 | 1014.7 |
| 20260503190524 | 13 | 0 | 27.4 | 41.8 | 0.00 | 0.23 | 0.05 | 54 | 1014.7 |
| 20260503185759 | 12 | 0 | 27.4 | 41.8 | 0.00 | 0.23 | 0.05 | 55 | 1014.5 |
| 20260503185258 | 12 | 0 | 25.7 | 43.5 | 0.00 | 0.23 | 0.05 | 54 | 1014.5 |
| 20260503184759 | 12 | 0 | 30.6 | 53.1 | 0.00 | 0.23 | 0.05 | 54 | 1014.4 |
| 20260503184258 | 12 | 0 | 33.8 | 53.1 | 0.00 | 0.23 | 0.05 | 53 | 1014.2 |
| 20260503183757 | 12 | 0 | 30.6 | 51.5 | 0.00 | 0.23 | 0.05 | 53 | 1014.6 |
| 20260503183258 | 12 | 0 | 32.2 | 48.3 | 0.00 | 0.23 | 0.05 | 54 | 1014.4 |
| 20260503182758 | 12 | 0 | 29.0 | 49.9 | 0.00 | 0.23 | 0.05 | 55 | 1014.5 |
| 20260503182258 | 12 | 0 | 38.6 | 49.9 | 0.00 | 0.23 | 0.05 | 57 | 1014.4 |
| 20260503181759 | 12 | 0 | 25.7 | 53.1 | 0.00 | 0.23 | 0.05 | 58 | 1014.5 |
| 20260503181257 | 12 | 0 | 30.6 | 54.7 | 0.00 | 0.23 | 0.05 | 59 | 1014.6 |
| 20260503180758 | 12 | 0 | 32.2 | 54.7 | 0.00 | 0.23 | 0.05 | 56 | 1014.6 |
| 20260503180258 | 13 | 0 | 38.6 | 54.7 | 0.00 | 0.23 | 0.05 | 53 | 1014.5 |
| 20260503175757 | 13 | 0 | 33.8 | 53.1 | 0.00 | 0.23 | 0.05 | 50 | 1014.2 |
| 20260503175257 | 13 | 0 | 37.0 | 57.9 | 0.00 | 0.23 | 0.05 | 49 | 1013.9 |
| 20260503174758 | 13 | 0 | 35.4 | 57.9 | 0.00 | 0.23 | 0.05 | 49 | 1013.8 |
| 20260503174256 | 13 | 0 | 30.6 | 54.7 | 0.00 | 0.23 | 0.05 | 49 | 1013.8 |
| 20260503173758 | 13 | 0 | 32.2 | 54.7 | 0.00 | 0.23 | 0.05 | 49 | 1013.9 |
| 20260503173521 | 13 | 0 | 37.0 | 54.7 | 0.00 | 0.23 | 0.05 | 49 | 1014.0 |
| 20260503172756 | 13 | 0 | 40.2 | 53.1 | 0.00 | 0.23 | 0.05 | 50 | 1013.8 |
| 20260503172257 | 13 | 0 | 30.6 | 45.1 | 0.00 | 0.23 | 0.05 | 51 | 1014.1 |
| 20260503171756 | 13 | 0 | 30.6 | 54.7 | 0.00 | 0.23 | 0.05 | 51 | 1013.8 |
| 20260503171256 | 13 | 1 | 32.2 | 54.7 | 0.00 | 0.23 | 0.05 | 50 | 1013.9 |
| 20260503170756 | 13 | 0 | 35.4 | 57.9 | 0.00 | 0.23 | 0.05 | 51 | 1013.8 |
| 20260503170256 | 13 | 0 | 33.8 | 57.9 | 0.00 | 0.23 | 0.05 | 52 | 1013.6 |
| 20260503150753 | 13 | 0 | 37.0 | 61.2 | 0.00 | 0.23 | 0.05 | 46 | 1013.1 |
| 20260503150253 | 13 | 0 | 38.6 | 59.5 | 0.00 | 0.23 | 0.05 | 47 | 1013.3 |
| 20260503140253 | 13 | 0 | 37.0 | 56.3 | 0.00 | 0.23 | 0.05 | 46 | 1013.1 |
| 20260503131252 | 12 | 0 | 27.4 | 57.9 | 0.00 | 0.23 | 0.05 | 54 | 1013.2 |
| 20260503130751 | 12 | 0 | 37.0 | 57.9 | 0.00 | 0.23 | 0.05 | 51 | 1013.4 |
| 20260503130516 | 13 | 0 | 38.6 | 56.3 | 0.00 | 0.23 | 0.05 | 49 | 1013.2 |